{"data":{"norad_id":53426,"intl_designator":"2022-097AQ","name":"STARLINK-4558","alt_names":[],"object_type":"PAYLOAD","status":"ACTIVE","operator":null,"country":"US","launch_date":"2022-08-10","launch_site_code":"AFETR","launch_vehicle":null,"mission":null,"orbit_class":"UNKNOWN","rcs_meters":null,"size_class":null,"mass_kg":null,"dimensions":null,"purposes":["comms"],"wikipedia_slug":null,"has_3d_model":false,"image_url":null,"decayed_at":null,"tle_current":{"epoch":"2026-05-25T05:03:05.788224Z","epoch_age_seconds":50237,"freshness":"FRESH","line1":"1 53426U 22097AQ  26145.21048366 -.00000463  00000+0 -11029-4 0  9999","line2":"2 53426  53.2123 120.7589 0001379  96.6620 263.4529 15.08842141210333","mean_motion":15.08842141,"eccentricity":0.0001379,"inclination_deg":53.2123,"raan_deg":120.7589,"arg_perigee_deg":96.662,"mean_anomaly_deg":263.4529,"bstar":-1.1029e-5,"rev_number":21033,"period_min":95.437419254848,"perigee_km":538.78286998817,"apogee_km":540.69081959456,"semimajor_km":6917.8738447914,"source":"CELESTRAK","updated_at":"2026-05-25T13:38:17.404869Z"}}}